P/2022 C2 ( PanSTARRS )

Japanese version
Home page
Updated on September 11, 2022

---------------------------------------------------------------------

* Profile

Discovery Date February 2, 2022
Magnitude 20.8 mag
Discoverer Pan-STARRS 2 telescope (Haleakala)

* Pictures

* Orbital Elements

Epoch 2022 Aug. 9.0 TT = JDT 2459800.5
T 2022 Aug. 6.59226 TT                                  Rudenko
q   3.3704172            (2000.0)            P               Q
n   0.06628518     Peri.   89.30182     -0.70170009     +0.70195674
a   6.0467926      Node   135.27194     -0.70298098     -0.65428580
e   0.4426107      Incl.    9.97968     -0.11590824     -0.28136601
P  14.9
From 220 observations 2022 Feb. 2-July 28, mean residual 0".4.

* Magnitudes Graph

        m1 = 5.5 + 5 log d + 20.0 log r

---------------------------------------------------------------------

The orbital elements are published on M.P.E.C. 2022-O116.
The magnitudes graphs are made with Comet for Windows.

---------------------------------------------------------------------

Copyright(C) Seiichi Yoshida (comet@aerith.net). All rights reserved.